Regional Weather Roundup
Issued by NWS

Home | Current Version | Previous Version | Graphics & Text | Print | Product List | Glossary On
Versions: 1 2 3 4 5 6 7 8 9 10 11 12 13 14 15 16 17 18 19 20 21 22 23 24 25 26 27 28 29 30 31 32 33 34 35 36 37 38 39 40 41 42 43 44 45 46 47 48 49 50
000
ASUS43 KLOT 242204
RWRIL

ILLINOIS REGIONAL WEATHER ROUNDUP
NATIONAL WEATHER SERVICE CHICAGO/ROMEOVILLE IL
500 PM CDT WED AUG 24 2016

NOTE: "FAIR" INDICATES FEW OR NO CLOUDS BELOW 12,000 FEET WITH NO
SIGNIFICANT WEATHER AND/OR OBSTRUCTIONS TO VISIBILITY.

* THESE STATIONS ARE NOT UNDER NWS QUALITY CONTROL. THEY ALSO MAY NOT
  REPORT WEATHER SUCH AS PRECIPITATION OR FOG.

ILZ001-002-007-009-015-016-024-242300-
NORTHWEST ILLINOIS

CITY           SKY/WX    TMP DP  RH WIND       PRES   REMARKS
MOLINE         MOSUNNY   86  70  58 SW9       29.95R HX  90
STERLING*      SUNNY     85  73  67 W14       29.95R HX  91
SAVANNA*       MOSUNNY   85  72  65 W10G17    29.94R HX  90
$$

ILZ003-004-008-010-011-017-018-242300-
NORTH CENTRAL ILLINOIS

CITY           SKY/WX    TMP DP  RH WIND       PRES   REMARKS
ROCKFORD       CLOUDY    85  72  65 W13       29.94R HX  91
FREEPORT*      SUNNY     83  71  67 W10       29.96R HX  88
ROCHELLE*      SUNNY     83  73  72 SW7       29.94S HX  89
$$

ILZ005-006-012>014-019>023-242300-
NORTHEAST ILLINOIS

CITY           SKY/WX    TMP DP  RH WIND       PRES   REMARKS
CHICAGO-OHARE  PTSUNNY   83  72  69 W9        29.92R HX  88
CHICAGO-MIDWAY PTSUNNY   84  71  65 SW15      29.92R HX  89
AURORA         SUNNY     84  73  69 W13       29.94S HX  90
LANSING*       MOSUNNY   81  70  69 W13       29.94R HX  84
JOLIET*        MOSUNNY   85  73  68 W12G18    29.94S HX  91
WAUKEGAN       MOSUNNY   82  71  69 VRB7      29.90S HX  86
DUPAGE AIRPORT MOSUNNY   83  70  64 W16       29.93R HX  87
KANKAKEE*      MOSUNNY   83  69  62 W10G21    29.96R HX  87
WHEELING       MOSUNNY   84  69  60 W10       29.93R HX  88
MORRIS*        MOSUNNY   83  72  68 W9        29.94R HX  88
ROMEOVILLE*    PTSUNNY   82  71  68 W13G20    29.95R HX  86
NORTHERLY ISL    N/A     83  69  62 W8          N/A  HX  86
$$

LMZ740>746-242300-
SOUTHERN LAKE MICHIGAN

STATION/POSITION SKY/WX   TEMP    WIND        PRES    VSBY  WAVE
                          AIR SEA DIR/SP/G                  HT/PER
                          (F)     (DEG/KT/KT) (MB)    (MI)  (FT/S)
SOUTHERN BUOY              75 74  180/ 12/ 14 1012.3          4/ 6
WILMETTE HARBOR            74 67  270/  4/  6   N/A           1/ 3
HARRISON CRIB              82     230/  6/  8   N/A
BURNHAM HARBOR             83     240/  8/ 13   N/A
CALUMET HARBOR             83     220/ 11/ 17 1012.4F
BURNS HARBOR               78     220/ 10     1013.5
MICHIGAN CITY              80     190/ 12/ 15   N/A
MICHIGAN CITY 6N           78 74  230/  8/ 12   N/A           2/ 3
ST. JOSEPH                 77 75  210/  6/  8 1013.0F         2/ 4
$$

ILZ025>027-034>036-040-047-049-050-058-095>099-242300-
WEST-CENTRAL ILLINOIS

CITY           SKY/WX    TMP DP  RH WIND       PRES   REMARKS
QUINCY         MOSUNNY   87  76  69 SW12      29.99S HX  97
GALESBURG*     PTSUNNY   82  71  67 SW5       29.98S HX  86
MACOMB*        MOSUNNY   83  73  71 SW7       30.01R HX  90
JACKSONVILLE*  MOSUNNY   86  75  70 SW7       29.99S HX  95
PITTSFIELD*    MOSUNNY   88  74  65 W5        30.01S HX  96
$$

ILZ028>032-037-038-041>044-048-051>054-059>061-242300-
CENTRAL ILLINOIS

CITY           SKY/WX    TMP DP  RH WIND       PRES   REMARKS
PONTIAC        SUNNY     85  73  67 W10G18    29.97R HX  91
BLOOMINGTON    SUNNY     85  71  63 W12       30.00R HX  90
DECATUR        MOSUNNY   88  74  63 SW14      30.00R HX  96
PEORIA         MOSUNNY   85  70  60 W10       29.98S HX  89
LACON*         SUNNY     85  69  58 W10       29.96R HX  89
LINCOLN*       SUNNY     88  73  62 W7        29.99R HX  96
SPRINGFIELD    CLOUDY    87  76  69 SW9       30.00R HX  97
TAYLORVILLE    CLOUDY    86  76  71 W7        30.01R HX  95
$$

ILZ033-039-045-046-055>057-062-063-242300-
EAST-CENTRAL ILLINOIS

CITY           SKY/WX    TMP DP  RH WIND       PRES   REMARKS
CHAMPAIGN      CLOUDY    85  74  69 SW10      30.00R HX  92
RANTOUL*       CLOUDY    85  75  70 W13       29.99R HX  93
MATTOON        MOSUNNY   86  74  67 SW10      30.01S HX  94
PARIS*         SUNNY     85  76  74 SW8       30.01S HX  95
$$

ILZ079-100>102-242300-
SOUTHWEST ILLINOIS

CITY           SKY/WX    TMP DP  RH WIND       PRES   REMARKS
ALTON          PTSUNNY   88  73  62 SW9       30.00S HX  96
BELLEVILLE     MOSUNNY   93  74  53 SW10      29.99S HX 103
CAHOKIA*       MOSUNNY   93  72  50 VRB7      29.99S HX 101
SPARTA*        MOSUNNY   90  76  63 S12G17    30.02F HX 101
$$

ILZ064>066-069>071-074>076-080>082-084>086-088>090-092>094-242300-
SOUTH-CENTRAL ILLINOIS

CITY           SKY/WX    TMP DP  RH WIND       PRES   REMARKS
CARBONDALE     MOSUNNY   89  73  59 SW15G22   30.04S HX  97
EFFINGHAM*     MOSUNNY   87  77  72 S9        30.02F HX  98
MARION         MOSUNNY   90  77  66 S12       30.05S HX 102
MT. VERNON     PTSUNNY   91  75  59 SW13      30.03S HX 102
CENTRALIA*     MOSUNNY   91  78  65 SW12G17   30.01S HX 104
SALEM*         MOSUNNY   89  76  65 SW10G17   30.02R HX 100
METROPOLIS*      N/A     91  75  60 S10       30.07  HX 102
$$

ILZ067-068-072-073-078-083-087-091-242300-
SOUTHEAST ILLINOIS

CITY           SKY/WX    TMP DP  RH WIND       PRES   REMARKS
LAWRENCEVILLE  PTSUNNY   87  77  72 S7        30.02F HX  99
FLORA*         CLOUDY    89  78  69 SW8       30.02S HX 103
FAIRFIELD*     MOSUNNY   89  76  67 SW10      30.02S HX 100
HARRISBURG*    SUNNY     90  77  66 S15       30.04S HX 103
ROBINSON*      MOSUNNY   85  78  77 SW9       30.03S HX  96
CARMI*         SUNNY     89  77  68 SW10G17   30.03R HX 101
$$

ABBREVIATIONS USED IN REMARKS
   TC - TEMPERATURE IN CELSIUS
  WCI - WIND CHILL INDEX
   HX - HEAT INDEX
  VSB - VISIBILITY
$$




USA.gov is the U.S. government's official web portal to all federal, state and local government web resources and services.